Regional Weather Roundup
Issued by NWS Newport/Morehead, NC

Current Version | Previous Version | Graphics & Text | Print | Product List | Glossary On
Versions: 1 2 3 4 5 6 7 8 9 10 11 12 13 14 15 16 17 18 19 20 21 22 23 24 25 26 27 28 29 30 31 32 33 34 35 36 37 38 39 40 41 42 43 44 45 46 47 48 49 50
725 ASUS42 KMHX 150225 RWRMHX WEATHER ROUNDUP FOR EASTERN NORTH CAROLINA NATIONAL WEATHER SERVICE NEWPORT/MOREHEAD CITY NC 900 PM EST THU DEC 14 2017 NOTE: "FAIR" INDICATES FEW OR NO CLOUDS BELOW 12,000 FEET WITH NO SIGNIFICANT WEATHER AND/OR OBSTRUCTIONS TO VISIBILITY NCZ015>017-031-032-045>047-102-103-150300- NORTH COAST CITY SKY/WX TMP DP RH WIND PRES REMARKS EDENTON CLEAR 41 33 72 NE7 30.04R ELIZABETH CITY PTCLDY 42 35 76 NE9 30.04R KITTY HAWK CLEAR 45 33 62 NE5 30.02R MANTEO CLEAR 44 35 70 NE9 30.03R $$ NCZ045>047-081-094-103-104-150300- CENTRAL COAST CITY SKY/WX TMP DP RH WIND PRES REMARKS FRISCO CLEAR 44 39 82 NE5 30.00R $$ NCZ095-097-098-100-101-150300- SOUTHERN COAST CITY SKY/WX TMP DP RH WIND PRES REMARKS BEAUFORT CLEAR 40 38 93 E3 29.99S CEDAR ISLAND NOT AVBL JACKSONVILLE CLEAR 38 36 92 CALM 29.99R PINEY ISLAND N/A N/A N/A N/A CALM 29.99R WILMINGTON CLOUDY 41 37 86 CALM 30.00R $$ NCZ011>013-027>030-043-044-078>080-089-090>093-098-150300- COASTAL PLAIN CITY SKY/WX TMP DP RH WIND PRES REMARKS AHOSKIE PTCLDY 40 29 66 NE5 30.05R CLINTON CLEAR 37 34 87 CALM 30.00R ELIZABETHTOWN NOT AVBL GOLDSBORO CLEAR 38 29 70 CALM 29.98R GREENVILLE CLEAR 39 32 75 E9 30.03R HAVELOCK CLEAR 39 36 89 CALM 30.00S KENANSVILLE CLEAR 34 30 86 CALM 30.00R KINSTON CLEAR 32 28 86 CALM 30.00S NEW BERN CLEAR 35 33 92 CALM 30.00R RICHLANDS CLEAR 34 33 96 CALM 30.00R ROCKY MOUNT CLEAR 34 30 85 CALM 30.01R WASHINGTON CLEAR 40 32 74 NE7 30.01S WHITEVILLE CLOUDY 39 35 86 CALM 29.98S $$ AMZ130-135-150-152-154-156-158-170-250-252-270-ANZ085-086-088-633-658-670-150300- MARINE OBSERVATIONS STATION/POSITION TIME TEMP WIND PRES WAVE SWELL AIR SEA DIR/SP/G HT/PER HT/PER (UTC) (F) (DEG/KT/KT) (MB) (FT/S) (FT/S) CHESAPEAKE LIGHT NOT AVBL 64 E VA BEACH 0150 47 60 20/ 12/ 17 1017.3 5/ 6 3/ 8 DUCK 0200 47 53 40/ 15/ 18 1016.6 2 E DUCK 0200 55 N/A 4/ 5 OREGON INLET 0200 48 42 20/ 10/ 14 1016.6 13E OREGON INLT 0148 63 N/A 4/ 8 3/ 8 HATTERAS CG 0200 47 52 40/ 5/ 8 1015.5 DIAMOND BUOY 0210 56 74 10/ 8/ 14 1015.8 CAPE LOOKOUT 0200 20/ 5/ 5 1015.6 BEAUFORT LAB 0200 45 51 10/ 1/ 2 1015.4 30 SE NEW RVR IN 0208 58 64 270/ 8/ 10 1015.7 30 SE NEW RVR IN 0200 64 N/A 4/ 8 27 SE WRIGHTSVLE 0208 58 65 280/ 10/ 16 1015.7 5 SE WRIGHTSVLE 0208 54 56 280/ 8/ 10 1015.2 225 S CAPE HAT 0150 70 74 260/ 21/ 25 1015.8 8/ 8 3/19 41 SE CHARLESTON 0210 71 250/ 16/ 19 1015.6 $$

USA.gov is the U.S. government's official web portal to all federal, state and local government web resources and services.